SRMSAT
Last updated on Sun Jun 21 2026 00:02:51 GMT+0000 (Coordinated Universal Time)
1 37841U 11058D 26171.35085059 .00000352 00000+0 47312-4 0 9990
2 37841 19.9729 40.3181 0011727 238.5935 283.9086 14.11576136758261
Next 0 passes for location: London (51.5072 / 0.1276)
No passes found over London.